Location: Innsbruck
(47.2657°N, 11.3914°E)
Time: 02:14:21
(UTC+02:00)

Envisat - Pass Details

Date: 11 February 2023
Orbit: 763 x 765 km, 98.2° (Epoch: 28 March)

Event Time Altitude Azimuth Distance (km) Brightness Sun altitude
Rises 05:02:33 0° 8° (N) 3,244 6.4 -24.9°
Reaches altitude 10° 05:04:56 10° 3° (N) 2,313 5.6 -24.5°
Enters shadow 05:08:31 39° 331° (NNW) 1,149 3.7 -23.9°
